Probability
10 13 6 0 0 0 0 0 0 0 0 0 0 0 0 0 0 0 0 0 0 0 0 0 0 0 0 0 0 0 0 0 0 0 0 3 0 3 6 3 3 3 3 3
6 0 0 0 0 0 0 0 0 0 0 0 0 0 0 0 0 0 0 0 0 0 0 0 0 0 0 0 0 0 0 0 0 0 0 0 0 0 3 3 0 3 3 3
0 0 0 0 0 0 0 0 0 0 0 0 0 0 0 0 0 0 0 0 0 0 0 0 0 0 0 0 0 0 0 0 0 0 0 0 0 0 0 0 3 3 3 10
0 0 0 0 0 0 0 0 0 0 0 0 0 0 0 0 0 0 0 0 0 0 0 0 0 0 0 0 0 0 0 0 0 0 0 0 0 0 0 0 0 0 0 0
0 0 0 0 0 0 0 0 0 0 0 0 0 0 0 0 0 0 0 0 0 0 0 0 0 0 0 0 0 0 0 0 0 0 0 0 0 0 0 0 0 0 0 6
0 0 0 0 0 0 0 0 0 0 0 0 0 0 0 0 0 0 0 0 0 0 0 0 0 0 0 0 0 0 0 0 0 0 0 0 0 0 0 0 0 0 3 6
0 0 0 0 0 0 0 0 0 0 0 0 0 0 0 0 0 0 0 0 0 0 0 0 0 0 0 0 0 0 0 0 0 0 0 0 0 0 0 0 0 3 3 6
0 0 0 0 0 0 0 0 0 0 0 0 0 0 0 0 0 0 0 0 0 0 0 0 0 0 0 0 0 0 0 0 0 0 0 0 0 0 0 0 0 0 3 3
0 0 0 0 0 0 0 0 0 0 0 0 0 0 0 0 0 0 0 0 0 0 0 0 0 0 0 0 0 0 0 0 0 0 0 0 0 0 0 0 0 0 0 3
0 0 0 0 0 0 0 0 0 0 0 0 0 0 0 0 0 0 0 0 0 0 0 0 0 0 0 0 0 0 0 0 0 0 0 0 0 0 0 0 0 0 3 6
0 0 0 0 0 0 0 0 0 0 0 0 0 0 0 0 0 0 0 0 0 0 0 0 0 0 0 0 0 0 0 0 0 0 0 0 0 0 0 0 0 3 3 6
0 0 0 0 0 0 0 0 0 0 0 0 0 0 0 0 0 0 0 0 0 0 0 0 0 0 0 0 0 0 0 0 0 0 0 0 0 0 0 0 0 0 0 3
0 0 0 0 0 0 0 0 0 0 0 0 0 0 0 0 0 0 0 0 0 0 0 0 0 0 0 0 0 0 0 0 0 0 0 0 0 0 0 0 0 0 0 0
0 0 0 0 0 0 0 0 0 0 0 0 0 0 0 0 0 0 0 0 0 0 0 0 0 0 0 0 0 0 0 0 0 0 0 0 0 0 0 0 0 0 0 0
0 0 0 0 0 0 0 0 0 0 0 0 0 0 0 0 0 0 0 0 0 0 0 0 0 0 0 0 0 0 0 0 0 0 0 0 0 0 0 0 0 0 0 0
0 0 0 0 0 0 0 0 0 0 0 0 0 0 0 0 0 0 0 0 0 0 0 0 0 0 0 0 0 0 0 0 0 0 0 0 0 0 0 0 0 0 0 0
0 0 0 0 0 0 0 0 0 0 0 0 0 0 0 0 0 0 0 0 0 0 0 0 0 0 0 0 0 0 0 0 0 0 0 0 0 0 0 0 0 0 0 0
0 0 0 0 0 0 0 0 0 0 0 0 0 0 0 0 0 0 0 0 0 0 0 0 0 0 0 0 0 0 0 0 0 0 0 0 0 0 0 0 0 0 0 0
0 0 0 0 0 0 0 0 0 0 0 0 0 0 0 0 0 0 0 0 0 0 0 0 0 0 0 0 0 0 0 0 0 0 0 0 0 0 0 0 0 0 0 0
0 0 0 0 0 0 0 0 0 0 0 0 0 0 0 0 0 0 0 0 0 0 0 0 0 0 0 0 0 0 0 0 0 0 0 0 0 0 0 0 0 0 0 0
0 0 0 0 0 0 0 0 0 0 0 0 0 0 0 0 0 0 0 0 0 0 0 0 0 0 0 0 0 0 0 0 0 0 0 0 0 0 0 0 0 0 0 0
0 0 0 0 0 0 0 0 0 0 0 0 0 0 0 0 0 0 0 0 0 0 0 0 0 0 0 0 0 0 0 0 0 0 0 0 0 0 0 0 0 0 0 0
0 0 0 0 0 0 0 0 0 0 0 0 0 0 0 0 0 0 0 0 0 0 0 0 0 0 0 0 0 0 0 0 0 0 0 0 0 0 0 0 0 0 0 0
0 0 0 0 0 0 0 0 0 0 0 0 0 0 0 0 0 0 0 0 0 0 0 0 0 0 0 0 0 0 0 0 0 0 0 0 0 0 0 0 0 0 0 0
0 0 0 0 0 0 0 0 0 0 0 0 0 0 0 0 0 0 0 0 0 0 0 0 0 0 0 0 0 0 0 0 0 0 0 0 0 0 0 0 0 0 0 0
0 0 0 0 0 0 0 0 0 0 0 0 0 0 0 0 0 0 0 0 0 0 0 0 0 0 0 0 0 0 0 0 0 0 0 0 0 0 0 0 0 0 0 0
Height
5896 5899 5900 5901 5900 5900 5899 5898 5896 5894 5890 5888 5885 5881 5878 5875 5872 5869 5866 5862 5859 5855 5851 5847 5844 5840 5835 5831 5827 5823 5819 5816 5812 5809 5806 5804 5802 5800 5799 5799 5799 5800 5801 5803
5894 5896 5897 5897 5897 5897 5896 5895 5893 5890 5888 5885 5882 5879 5875 5872 5870 5867 5864 5860 5857 5853 5849 5845 5841 5837 5833 5829 5824 5820 5815 5811 5808 5804 5801 5798 5796 5794 5792 5791 5791 5791 5792 5793
5891 5893 5893 5894 5894 5894 5893 5892 5890 5887 5885 5882 5879 5877 5874 5871 5868 5865 5862 5859 5855 5852 5848 5844 5840 5836 5831 5826 5822 5817 5812 5808 5804 5801 5797 5794 5791 5788 5786 5784 5784 5784 5784 5785
5888 5890 5891 5891 5891 5891 5890 5889 5887 5885 5882 5880 5878 5876 5873 5870 5867 5864 5861 5858 5855 5851 5847 5843 5839 5834 5830 5825 5820 5815 5810 5806 5802 5798 5794 5790 5787 5783 5780 5778 5777 5777 5777 5778
5885 5887 5888 5889 5889 5888 5887 5886 5884 5882 5880 5879 5877 5875 5873 5869 5866 5864 5861 5858 5854 5851 5847 5842 5838 5833 5829 5824 5818 5813 5808 5804 5800 5795 5791 5787 5783 5779 5775 5773 5771 5770 5770 5771
5883 5885 5886 5886 5886 5886 5885 5884 5883 5881 5879 5878 5876 5875 5873 5869 5866 5864 5861 5858 5854 5850 5846 5842 5838 5833 5828 5823 5818 5812 5808 5803 5798 5794 5789 5784 5780 5776 5772 5769 5766 5765 5764 5764
5881 5883 5883 5884 5884 5884 5883 5883 5882 5880 5879 5878 5876 5874 5873 5869 5866 5864 5861 5857 5854 5850 5846 5842 5837 5833 5828 5823 5818 5812 5807 5803 5798 5792 5787 5783 5778 5773 5769 5765 5762 5760 5759 5759
5880 5881 5882 5882 5882 5882 5881 5881 5881 5880 5879 5877 5875 5873 5872 5869 5866 5864 5861 5857 5854 5850 5846 5841 5837 5833 5828 5823 5818 5813 5808 5802 5797 5792 5786 5781 5776 5771 5767 5763 5759 5757 5755 5754
5878 5879 5880 5880 5880 5880 5880 5880 5880 5879 5878 5877 5875 5874 5872 5869 5867 5864 5861 5857 5854 5850 5846 5842 5838 5833 5829 5824 5818 5813 5808 5802 5797 5791 5786 5780 5775 5770 5765 5761 5758 5755 5753 5751
5876 5878 5878 5879 5879 5879 5879 5879 5879 5878 5877 5876 5875 5874 5872 5869 5867 5864 5861 5858 5854 5850 5846 5842 5838 5834 5829 5824 5819 5814 5808 5803 5797 5792 5786 5780 5775 5770 5765 5760 5756 5753 5751 5749
5875 5877 5878 5877 5878 5878 5878 5878 5877 5877 5877 5876 5875 5876 5872 5870 5867 5865 5862 5858 5855 5851 5847 5843 5839 5835 5830 5825 5820 5814 5809 5803 5798 5792 5786 5781 5775 5770 5765 5761 5757 5753 5751 5749
5874 5875 5876 5876 5877 5877 5877 5877 5877 5877 5876 5875 5875 5877 5871 5869 5867 5865 5862 5859 5855 5852 5848 5844 5840 5836 5831 5826 5821 5816 5810 5805 5799 5793 5787 5782 5776 5771 5766 5761 5757 5754 5751 5749
5873 5874 5875 5876 5878 5877 5876 5876 5876 5876 5876 5875 5874 5876 5871 5869 5867 5865 5862 5859 5856 5853 5849 5845 5841 5837 5832 5827 5822 5817 5812 5806 5801 5795 5789 5783 5778 5772 5767 5763 5759 5756 5752 5749
5872 5873 5875 5876 5876 5876 5876 5876 5875 5875 5875 5875 5874 5873 5871 5869 5867 5865 5862 5859 5856 5853 5849 5846 5842 5838 5833 5829 5824 5819 5813 5808 5802 5797 5791 5785 5780 5774 5769 5765 5761 5757 5753 5749
5871 5873 5873 5874 5874 5875 5875 5875 5875 5875 5875 5874 5874 5872 5871 5869 5867 5865 5862 5859 5856 5853 5850 5846 5842 5839 5834 5830 5825 5820 5815 5810 5804 5799 5793 5787 5782 5777 5772 5767 5763 5758 5754 5750
5870 5872 5873 5873 5874 5874 5874 5875 5874 5874 5874 5874 5873 5872 5870 5869 5867 5864 5862 5859 5856 5853 5850 5847 5843 5839 5835 5831 5826 5821 5816 5811 5806 5801 5795 5790 5784 5779 5774 5769 5764 5760 5756 5751
5870 5871 5872 5873 5873 5873 5874 5874 5874 5874 5873 5873 5872 5872 5869 5868 5866 5864 5861 5859 5856 5853 5850 5847 5843 5839 5835 5831 5827 5822 5818 5813 5807 5802 5797 5792 5786 5781 5776 5771 5766 5762 5757 5753
5869 5870 5871 5871 5873 5873 5875 5873 5873 5873 5872 5871 5871 5870 5868 5867 5865 5863 5861 5858 5855 5853 5849 5846 5843 5839 5835 5832 5827 5823 5819 5814 5809 5804 5799 5793 5788 5783 5778 5773 5769 5764 5759 5754
5867 5869 5869 5870 5871 5871 5872 5871 5871 5871 5871 5870 5869 5868 5867 5865 5863 5862 5859 5857 5854 5852 5849 5845 5842 5839 5835 5831 5828 5824 5819 5815 5810 5805 5800 5795 5790 5785 5781 5776 5771 5766 5762 5757
5866 5867 5868 5868 5869 5870 5871 5870 5869 5870 5869 5868 5867 5866 5865 5863 5862 5860 5858 5855 5853 5850 5847 5844 5841 5838 5834 5831 5827 5823 5819 5815 5811 5806 5801 5797 5792 5787 5783 5778 5774 5769 5764 5760
5863 5864 5865 5865 5866 5867 5867 5866 5867 5868 5868 5865 5864 5863 5862 5861 5859 5858 5855 5853 5851 5848 5845 5843 5840 5836 5833 5830 5826 5823 5819 5815 5811 5807 5802 5798 5793 5789 5784 5780 5776 5771 5767 5762
5860 5861 5862 5862 5863 5865 5864 5863 5864 5864 5862 5862 5861 5860 5859 5857 5856 5854 5852 5850 5848 5845 5843 5840 5837 5834 5831 5828 5825 5821 5818 5814 5810 5807 5802 5798 5794 5790 5786 5782 5778 5773 5769 5765
5856 5857 5858 5859 5861 5860 5859 5859 5859 5858 5858 5857 5857 5856 5855 5853 5852 5850 5848 5846 5844 5842 5840 5837 5834 5831 5829 5826 5823 5819 5816 5813 5809 5806 5802 5798 5794 5790 5786 5783 5779 5775 5771 5767
5851 5852 5852 5853 5854 5854 5854 5854 5854 5853 5853 5852 5852 5851 5850 5849 5847 5846 5844 5842 5840 5838 5835 5833 5830 5828 5825 5822 5820 5817 5814 5811 5807 5804 5801 5797 5793 5790 5786 5783 5779 5775 5772 5768
5845 5846 5846 5847 5848 5848 5848 5848 5848 5848 5847 5847 5846 5845 5844 5843 5842 5840 5839 5837 5835 5833 5831 5828 5826 5823 5821 5818 5816 5813 5810 5808 5805 5801 5798 5795 5792 5788 5785 5782 5778 5775 5772 5768
5838 5839 5840 5841 5841 5842 5842 5842 5842 5841 5841 5840 5840 5839 5838 5837 5836 5834 5833 5831 5829 5827 5825 5823 5820 5818 5816 5813 5811 5808 5806 5803 5801 5798 5795 5792 5789 5786 5783 5780 5777 5773 5770 5767
Wind_Speed
18 17 15 15 15 15 16 17 18 18 18 18 18 18 18 18 17 16 16 17 17 18 19 19 20 20 20 21 21 21 22 22 21 21 22 23 23 24 26 28 30 32 33 36
18 17 15 15 15 15 15 16 16 16 16 16 15 15 15 15 14 14 15 16 17 17 18 19 19 19 20 20 21 21 20 20 19 19 19 19 20 21 22 24 27 29 30 32
17 16 15 14 13 13 14 14 14 14 14 13 13 13 13 12 13 13 14 15 16 17 17 18 19 20 20 21 21 21 20 19 18 18 18 18 18 19 20 21 23 25 27 30
17 14 14 13 12 12 12 12 12 12 11 11 11 10 11 12 12 13 13 14 15 16 17 18 19 20 21 21 21 21 21 19 18 18 17 18 18 18 18 19 20 22 24 26
15 13 12 12 11 10 10 9 9 9 8 8 8 9 10 11 12 12 13 14 15 16 18 18 19 20 21 22 22 21 20 19 19 18 18 18 18 17 17 16 17 18 20 23
14 12 11 10 9 8 7 7 7 7 6 6 7 8 9 10 11 12 13 14 15 17 18 19 19 20 21 22 22 21 20 20 20 20 19 19 18 17 16 16 15 16 18 20
13 11 10 9 7 6 5 5 5 5 6 6 6 7 8 9 11 12 13 14 16 17 18 19 19 20 21 22 23 22 21 21 21 21 21 20 19 18 17 15 13 13 14 16
11 10 8 7 5 4 3 2 3 4 4 5 6 7 8 9 11 12 13 14 16 17 18 19 19 20 21 22 22 22 22 23 23 23 22 21 20 19 18 15 13 11 11 12
11 9 7 5 4 2 1 1 2 3 4 5 6 7 8 9 11 12 13 15 16 17 18 19 19 20 21 22 23 23 23 24 24 23 23 22 21 20 18 16 14 12 10 10
10 8 6 4 3 2 1 2 2 3 4 4 5 6 7 9 10 12 13 15 16 18 18 19 19 20 22 22 23 23 23 24 24 25 24 23 22 21 20 17 15 12 10 8
9 7 6 4 3 2 2 2 2 3 3 4 5 6 7 8 10 12 13 14 16 17 18 19 20 20 22 23 23 24 24 25 25 25 25 24 23 22 21 19 16 13 11 10
8 7 6 4 4 3 3 3 2 3 3 3 4 6 7 8 10 11 13 14 15 17 18 18 19 20 22 23 24 24 24 25 25 26 26 25 24 22 21 19 17 15 13 12
8 7 6 5 4 3 3 3 3 3 3 3 4 5 7 8 9 11 12 14 15 16 17 18 19 20 21 23 24 24 25 25 26 26 26 25 25 23 21 20 19 17 15 14
8 7 6 5 4 3 3 3 3 3 3 3 4 5 6 8 9 11 12 13 14 15 16 17 18 19 21 22 23 24 24 25 26 26 26 25 25 24 22 21 20 18 17 15
8 7 6 5 4 4 3 3 3 3 3 3 4 5 6 7 9 10 12 13 14 15 16 16 17 19 20 21 23 23 24 25 25 26 26 26 25 24 23 22 21 20 19 17
8 7 6 5 4 4 3 3 2 2 2 2 3 4 6 7 9 10 11 13 14 15 15 16 17 18 19 21 22 23 24 24 24 25 25 26 25 25 24 23 22 21 20 19
8 7 6 5 4 4 3 2 1 1 1 2 3 4 6 7 8 10 11 12 13 14 15 15 16 17 19 20 21 22 23 23 24 24 24 25 25 25 24 24 23 23 21 20
8 7 6 5 5 4 3 2 1 1 2 3 4 5 6 7 8 10 11 12 13 14 14 15 16 17 18 19 20 21 22 23 23 24 24 24 24 24 24 23 23 23 22 21
8 7 7 6 5 4 4 3 3 4 4 4 5 6 7 8 9 10 11 12 13 14 14 15 16 17 17 18 19 20 21 22 23 23 24 24 24 23 23 23 23 23 23 22
9 9 8 7 7 6 6 6 6 6 6 6 7 8 9 10 11 11 12 13 13 14 15 15 16 17 18 18 19 19 20 21 22 22 23 23 23 23 22 22 22 23 23 23
11 11 10 10 9 9 8 8 8 9 9 9 9 10 11 11 12 13 13 14 14 15 16 16 17 18 18 19 19 19 20 20 21 21 22 22 22 21 21 21 21 22 22 22
14 13 13 12 12 11 11 11 11 11 11 12 12 12 13 13 14 14 15 15 16 16 17 17 18 19 19 19 20 20 20 20 20 21 21 21 21 20 20 19 20 21 21 21
16 15 15 15 14 14 14 14 14 14 14 15 15 15 16 16 16 17 17 17 18 18 18 19 19 19 20 20 20 20 20 20 20 20 20 20 20 20 19 18 19 19 19 20
18 18 17 17 16 17 17 17 17 17 17 18 18 18 18 18 19 19 19 19 19 20 20 20 20 20 20 20 20 20 20 20 20 20 20 20 20 19 19 18 18 18 18 18
21 20 20 20 20 20 20 20 20 20 20 20 20 20 20 21 21 21 21 21 21 21 21 21 21 21 21 21 21 21 21 21 21 21 21 20 20 20 19 19 18 18 17 17
23 23 23 23 23 23 22 22 22 22 22 22 22 22 22 22 23 23 23 23 23 23 23 23 23 24 24 24 23 23 22 22 22 22 21 21 21 20 20 19 19 18 18 17
Wind_Direction
234 240 247 255 264 273 283 292 299 306 311 314 316 317 319 323 325 327 330 332 333 334 335 335 334 333 331 329 326 321 316 311 307 303 298 292 285 277 271 265 261 259 256 253
231 237 245 255 266 277 286 295 303 309 315 318 322 324 327 331 333 335 337 339 340 340 340 340 340 340 339 338 336 332 328 321 316 313 308 302 295 286 277 270 264 261 257 253
230 238 246 257 269 280 289 299 306 314 320 325 328 334 338 341 343 345 347 348 348 347 347 347 346 345 343 342 341 340 337 332 327 323 318 313 306 297 287 277 269 263 258 254
228 236 246 257 270 281 293 303 311 319 326 333 340 346 350 351 355 355 356 356 356 355 354 353 351 351 350 349 346 344 343 341 336 332 327 322 316 309 298 287 275 267 261 256
227 235 245 257 269 281 296 308 317 326 333 343 354 0 1 4 6 6 6 5 4 1 359 358 356 356 356 355 353 351 351 350 347 343 337 332 327 321 312 301 286 273 265 260
224 232 244 256 267 281 297 313 327 338 348 4 7 10 12 12 13 12 12 9 5 2 0 360 360 1 2 2 1 1 0 358 354 351 347 343 339 333 324 312 297 281 271 263
222 232 243 253 264 279 302 323 345 6 15 18 16 19 20 18 17 15 12 9 6 4 3 3 4 4 5 5 5 5 4 2 359 356 352 350 348 344 338 328 314 295 280 267
223 232 240 245 256 276 307 341 12 22 23 25 26 28 26 23 19 17 15 13 10 9 9 8 8 7 7 6 6 6 6 4 3 2 360 357 354 351 347 340 331 316 298 279
216 226 230 234 245 255 277 68 51 41 42 39 37 34 30 24 21 19 19 18 16 15 14 13 12 11 10 9 8 8 8 7 6 6 5 3 1 359 357 352 345 337 320 297
210 217 219 222 219 202 154 107 83 64 56 50 39 31 28 23 24 24 22 20 19 18 17 16 15 13 12 11 10 10 9 10 10 10 9 8 7 5 4 0 355 351 344 327
206 210 210 207 195 178 151 114 89 78 73 59 42 34 29 26 25 24 22 20 19 19 19 18 17 16 15 14 13 13 13 13 13 12 12 11 10 10 10 9 8 5 1 351
198 198 197 189 180 168 145 121 103 97 83 59 44 36 30 28 24 22 21 20 20 19 18 18 17 17 16 15 15 15 15 15 15 14 14 14 13 13 14 14 14 13 11 4
189 188 185 183 176 164 149 130 115 105 84 62 46 37 31 27 23 21 19 17 17 16 16 16 15 15 15 15 16 16 16 16 17 16 16 16 16 17 17 17 16 16 14 9
183 181 181 181 176 167 153 138 124 109 90 66 46 36 29 25 20 17 14 13 13 12 13 13 13 14 14 14 15 15 16 16 17 18 18 18 19 19 19 19 19 17 14 11
180 176 176 174 170 162 150 140 124 108 87 63 42 29 21 15 13 11 10 10 10 10 10 11 12 12 12 13 14 15 16 16 17 18 19 19 19 20 20 20 20 18 16 12
176 176 177 175 172 163 152 141 126 104 76 47 27 16 8 6 6 5 6 6 7 8 7 8 9 10 10 11 11 13 14 14 15 15 16 17 18 19 19 20 20 20 18 16
181 183 184 184 181 178 171 173 155 86 31 9 0 357 358 358 359 360 0 1 2 3 4 4 4 6 7 8 9 10 11 13 13 13 14 15 16 18 19 20 20 20 19 18
189 190 190 192 198 207 216 226 250 281 314 331 337 340 342 344 347 350 352 354 356 357 358 358 359 1 3 4 6 7 8 10 11 11 12 13 14 16 17 19 20 20 21 21
199 199 201 206 213 221 231 249 267 281 294 306 314 320 325 330 333 337 341 344 347 350 352 353 354 355 356 358 359 1 4 6 8 9 10 12 13 15 16 18 20 21 21 22
211 214 218 224 230 238 249 259 269 278 287 298 306 312 317 321 324 328 330 333 336 339 341 344 347 348 350 351 352 354 356 359 2 4 6 8 10 13 14 16 17 18 19 20
224 227 232 238 243 249 256 264 271 277 286 292 298 304 308 311 315 319 322 325 328 331 333 336 338 340 342 344 346 348 350 353 355 357 1 3 6 8 10 13 14 15 16 18
234 237 241 246 250 254 260 265 271 276 281 287 292 297 300 304 307 310 314 317 320 324 327 328 330 332 334 336 339 342 344 346 349 351 354 358 0 2 4 6 9 11 14 15
241 243 247 250 254 258 262 266 271 275 280 285 289 292 296 299 303 305 308 311 314 317 319 322 323 325 328 330 332 335 337 340 342 344 346 350 353 355 356 358 0 3 6 9
245 247 250 253 255 259 263 267 271 275 278 283 286 290 293 297 300 302 305 307 309 311 313 315 317 319 322 323 325 328 331 334 336 338 340 341 344 347 348 348 350 353 356 359
248 250 253 255 257 261 264 267 271 274 278 281 285 288 292 295 297 300 302 304 306 307 309 310 311 313 315 317 318 321 323 326 328 330 332 334 336 337 339 341 341 342 345 347
251 252 254 256 259 262 265 268 271 274 277 280 283 287 290 293 295 298 300 301 303 304 306 306 307 308 309 310 311 313 315 316 318 319 321 324 326 328 330 331 332 333 334 335